Wind_Speed
4 5 6 10 7 5 3 3 6 13 4 5 6 8 10 16 14 16 14 9 8 17 16 25 28 30 31 33 35 37 35 33 35 30 30 27 25 22 20 19 18 15 17 15
5 6 12 5 3 5 5 4 8 9 4 1 1 8 7 14 21 20 20 16 14 12 11 19 27 31 33 35 38 39 38 36 37 35 32 29 26 23 19 21 20 18 18 16
6 8 7 3 7 4 9 4 6 4 5 4 4 8 7 7 10 15 19 20 18 15 16 18 22 30 30 32 35 39 40 39 39 36 33 27 26 23 21 20 21 21 21 16
6 7 5 5 7 6 4 8 7 4 3 2 4 5 6 3 9 10 19 17 18 17 15 15 19 26 31 33 33 39 41 40 41 39 36 32 27 23 25 24 21 20 22 19
8 5 5 5 7 6 9 2 2 1 3 2 3 4 9 7 9 8 14 15 18 19 17 18 20 31 31 29 31 33 38 39 39 42 39 38 31 31 27 25 22 22 21 22
9 3 5 9 5 6 3 2 6 5 3 3 3 4 6 10 9 10 7 8 15 17 18 15 24 25 25 26 28 29 34 38 41 41 42 41 34 33 29 26 25 23 23 23
6 5 4 4 2 2 6 7 4 5 5 5 1 4 1 16 18 16 17 7 6 9 11 13 16 20 24 27 29 30 34 35 40 41 42 43 40 38 34 30 27 25 25 27
0 7 5 3 6 5 3 7 5 3 1 5 1 5 3 17 17 20 16 15 17 8 12 15 17 23 25 29 31 32 33 35 39 41 42 44 43 39 37 33 30 29 29 29
3 5 6 3 3 6 2 1 3 6 3 3 3 7 7 26 27 28 26 22 20 18 12 17 17 26 27 29 32 34 33 34 37 41 41 41 43 41 39 35 31 29 28 27
3 2 3 5 6 7 6 3 4 4 2 3 5 4 7 21 22 22 24 22 22 22 10 3 6 12 20 28 30 30 32 35 40 39 37 39 41 41 38 33 30 28 27 26
5 3 6 5 6 3 6 4 5 5 3 3 0 1 7 11 10 13 16 16 19 18 19 11 3 5 10 10 14 17 22 26 28 31 34 30 36 37 36 35 33 31 31 29
4 4 3 5 2 6 5 4 4 5 4 1 4 4 4 7 9 13 14 17 17 18 16 13 13 13 10 7 2 7 7 8 9 13 20 33 34 34 36 36 36 33 31 30
3 3 3 6 6 7 7 6 3 4 3 2 4 3 7 5 6 7 10 12 14 15 18 16 15 16 15 21 28 27 25 21 16 6 11 18 24 33 35 36 36 33 32 32
9 3 5 5 4 2 5 5 5 4 3 4 2 4 9 14 13 11 12 10 11 12 11 13 12 11 11 8 22 25 12 12 11 15 20 22 21 24 30 34 33 34 32 30
5 3 3 2 8 8 4 5 8 5 2 3 3 3 5 7 9 8 4 7 9 11 13 10 9 8 12 6 6 20 30 8 13 15 20 15 20 23 30 33 35 32 32 32
4 3 3 2 4 9 11 8 6 7 5 5 4 0 3 7 8 10 8 11 7 6 8 8 8 10 7 9 6 20 34 22 25 25 29 31 27 28 26 33 37 34 34 33
3 5 3 1 3 5 5 4 2 2 4 1 0 2 5 6 10 7 9 10 12 9 6 7 6 14 17 13 8 12 20 25 29 29 24 21 24 30 31 28 34 37 35 35
4 4 3 3 2 2 4 2 4 6 3 4 3 5 6 6 9 10 4 5 13 13 13 12 11 10 11 12 18 15 18 24 25 28 33 23 24 29 25 30 34 36 35 38
2 5 3 4 3 1 4 2 2 4 2 4 4 5 6 9 8 6 2 6 9 11 16 20 21 23 25 13 9 8 13 19 32 29 29 29 27 31 27 30 32 39 33 34
6 7 5 2 4 6 3 5 5 3 4 3 3 5 7 7 6 5 8 12 12 17 21 24 30 27 26 25 13 15 18 21 28 31 25 22 27 35 20 26 35 43 36 37
3 4 4 2 2 3 2 5 4 2 4 5 4 6 7 5 6 8 12 13 18 16 20 25 27 23 25 25 17 19 21 21 25 23 26 24 35 29 18 23 39 42 37 33
3 4 2 2 3 3 2 0 0 3 3 4 6 7 9 10 12 13 13 12 17 18 20 19 18 22 25 23 22 13 18 21 21 16 11 17 17 12 22 25 28 32 36 27
1 5 5 5 4 3 1 5 3 3 4 4 5 9 9 13 14 14 13 14 17 21 21 20 20 21 24 23 25 20 25 24 19 16 12 11 4 8 18 18 21 37 8 17
3 2 4 3 3 5 4 4 4 3 4 6 6 8 11 13 14 14 11 11 15 20 20 20 18 18 21 27 25 27 28 24 22 17 15 13 9 8 6 6 5 5 12 12
4 3 5 0 2 2 3 4 4 1 4 7 9 11 12 13 14 13 12 12 16 18 19 19 21 20 20 26 29 30 32 28 26 23 15 12 11 12 11 10 13 11 8 2
4 6 4 5 6 4 3 5 3 1 4 7 9 13 13 14 12 16 12 17 18 19 19 20 21 22 25 26 31 33 28 27 25 22 18 14 10 9 12 13 13 12 6 6
Wind_Direction
4 46 254 246 195 201 231 228 264 282 271 251 247 260 184 196 207 206 206 194 213 216 205 195 192 189 190 193 198 199 197 203 197 199 196 197 199 200 206 214 209 202 208 220
5 262 249 264 223 224 206 277 282 271 344 214 210 274 239 192 214 206 205 212 212 209 185 188 184 186 188 188 197 200 202 202 200 198 200 202 202 203 211 204 211 214 213 204
174 234 47 353 295 298 280 209 253 229 330 358 356 297 271 213 221 219 223 218 213 198 194 191 184 189 189 193 192 198 202 204 205 203 202 203 207 206 202 207 211 220 215 215
232 285 237 269 253 173 263 236 235 284 62 274 61 280 306 243 216 217 227 218 211 206 199 191 188 189 194 194 193 200 203 204 206 206 206 204 200 202 210 213 214 216 219 216
249 262 271 238 226 169 228 100 93 346 88 34 340 54 268 353 311 263 238 211 209 204 195 191 195 197 195 193 191 197 203 203 205 208 210 210 213 214 213 214 217 219 222 225
241 258 217 220 234 183 61 41 37 55 68 34 265 125 302 351 309 312 327 217 203 203 205 195 199 195 194 195 194 193 201 204 207 211 212 215 215 219 215 217 220 222 223 225
315 267 269 179 233 53 77 53 352 354 12 219 186 60 338 5 7 32 26 4 236 234 221 196 189 190 191 192 194 194 200 202 207 212 211 216 218 223 221 223 223 222 223 225
102 341 340 182 203 166 70 140 149 250 219 271 120 89 67 13 3 17 29 12 10 278 197 206 202 190 189 193 193 195 199 203 207 211 214 217 221 224 228 231 230 229 230 231
156 274 306 27 118 120 184 136 179 105 27 25 325 339 285 1 4 2 356 4 5 342 256 210 194 195 191 193 198 198 199 204 208 213 215 217 220 223 226 232 234 235 238 242
216 329 323 332 54 29 101 142 38 13 64 344 354 67 327 347 346 347 352 359 355 353 341 198 216 211 202 197 200 200 203 203 209 213 214 218 221 228 231 236 238 238 239 244
135 125 307 36 17 353 13 15 48 110 123 162 14 314 346 330 336 335 336 354 5 358 8 358 59 144 197 203 214 219 213 205 209 210 215 215 225 229 232 237 240 241 239 239
4 118 92 161 301 83 80 40 110 109 284 86 135 214 1 334 336 353 349 348 359 12 5 3 13 31 75 101 159 221 244 259 251 241 229 220 227 232 235 238 241 244 243 243
116 12 84 339 353 7 56 329 330 105 77 24 135 204 356 338 19 12 344 358 2 2 6 358 13 28 40 57 53 68 69 60 54 353 262 257 246 229 232 241 243 242 243 244
84 59 140 166 188 140 71 333 343 97 105 159 168 317 334 345 355 6 355 355 353 2 9 3 7 9 8 50 47 359 30 44 31 18 4 355 325 273 252 241 240 245 242 242
89 105 71 92 96 88 76 32 20 65 105 121 155 161 283 311 322 330 307 342 6 6 0 10 4 353 8 342 74 285 282 317 328 349 330 318 321 324 277 249 244 240 241 239
10 149 135 57 92 107 80 32 32 32 38 104 124 309 247 295 318 336 348 341 356 350 347 344 1 337 9 57 221 233 252 291 309 311 308 299 299 307 300 262 254 238 238 239
60 125 84 217 100 142 33 347 62 76 21 37 288 297 328 315 320 302 328 338 331 337 312 316 333 347 343 355 348 329 335 326 325 309 302 290 296 300 300 279 251 235 231 235
125 88 79 179 12 184 237 280 89 105 30 1 312 306 313 303 298 284 262 300 323 321 327 324 326 300 303 304 320 328 327 333 322 315 306 287 288 295 298 279 248 231 224 229
129 122 81 123 88 85 274 140 225 214 267 351 338 316 318 328 328 303 78 359 325 313 314 317 323 324 324 290 264 279 292 304 302 311 315 322 317 315 294 258 251 231 216 221
59 69 112 118 144 209 189 288 318 121 269 264 294 300 313 332 312 271 327 333 325 324 323 325 330 340 337 330 282 248 261 287 287 301 317 320 342 353 275 246 242 235 219 217
27 11 108 99 123 288 211 291 299 192 253 309 296 301 305 290 254 289 307 307 310 307 313 320 323 325 326 334 328 296 285 270 285 283 301 335 358 360 11 315 251 233 228 214
138 122 156 102 106 265 355 232 232 218 284 278 295 297 297 289 302 303 305 304 309 310 313 310 309 313 320 325 333 322 302 316 297 315 314 338 346 341 359 283 329 322 241 207
28 174 174 164 204 183 103 142 155 175 231 271 271 289 297 304 300 304 304 308 304 307 307 307 304 310 316 320 322 319 320 333 316 323 353 16 35 48 302 331 359 281 180 186
357 135 104 106 258 164 163 158 185 228 250 292 286 290 289 289 304 304 303 306 307 304 305 313 315 313 313 317 316 316 315 316 323 312 331 0 3 17 23 311 290 332 136 211
199 118 137 102 109 62 194 189 163 281 299 293 285 277 287 293 292 303 296 297 296 299 304 312 309 301 299 309 308 309 312 316 314 314 304 325 354 349 349 349 347 348 353 321
185 172 157 215 189 158 195 156 161 327 288 292 307 315 317 312 318 321 317 312 307 304 305 302 302 307 305 304 302 302 306 310 313 311 299 305 328 339 341 346 343 1 312 288
Height
782 800 813 799 798 794 796 802 807 783 762 764 769 768 765 758 759 760 759 764 764 759 760 767 772 778 783 790 794 797 801 805 811 815 818 822 823 825 828 829 831 832 833 835
798 810 786 784 788 793 799 801 801 779 760 764 765 767 756 757 753 749 750 754 756 758 759 762 766 772 776 781 787 793 797 802 807 811 815 819 821 822 825 827 830 830 832 834
809 789 776 782 786 794 791 798 792 785 772 766 771 783 763 752 748 745 742 735 742 748 752 754 760 765 772 777 781 787 793 798 803 808 813 816 820 822 823 825 827 828 830 832
797 777 778 784 792 789 805 772 776 777 791 811 777 821 775 757 757 746 737 736 736 740 745 751 757 761 765 770 778 784 789 794 799 804 808 812 813 817 820 822 825 826 828 830
793 779 781 786 779 773 784 761 770 774 792 793 793 815 783 761 755 744 735 730 731 730 736 742 748 752 759 768 774 781 786 790 795 798 803 807 810 813 816 820 823 824 825 827
779 759 764 767 755 760 757 770 785 800 809 829 800 805 798 785 765 749 733 727 726 728 731 737 745 752 758 765 771 777 782 786 790 794 798 801 805 809 813 816 818 820 822 823
782 769 756 751 765 758 773 802 839 833 842 834 802 812 811 782 768 757 748 739 733 734 735 736 740 746 753 759 765 771 775 781 784 788 792 796 800 804 807 811 814 816 818 818
809 806 760 751 758 770 777 795 835 834 846 832 805 809 816 787 775 763 758 753 745 735 730 734 738 742 747 753 758 764 768 773 779 783 786 790 795 799 803 807 809 812 813 815
810 798 756 748 750 756 778 797 788 823 831 836 821 800 777 786 784 774 766 753 751 746 732 728 730 736 742 748 752 757 762 768 773 777 781 785 789 792 796 800 805 808 811 814
778 801 768 757 749 758 769 776 808 824 837 832 829 834 839 816 807 797 781 770 758 748 730 734 739 744 746 744 749 755 759 763 766 773 779 782 786 791 795 799 803 806 808 810
776 788 786 772 787 791 790 800 806 817 830 841 850 853 826 824 817 812 798 782 769 762 754 746 744 746 750 755 759 764 765 765 768 772 776 782 784 787 790 793 797 800 801 802
774 797 809 800 785 777 786 795 810 830 824 836 839 854 822 819 813 805 798 784 775 769 768 760 754 751 753 755 762 766 772 777 779 782 783 777 780 784 786 787 789 792 795 798
771 809 826 815 804 792 806 805 800 814 824 839 841 844 817 816 814 810 805 790 782 779 772 769 767 767 766 766 769 770 771 777 776 779 781 785 786 776 776 782 782 784 787 789
771 812 813 834 815 810 819 814 807 813 834 842 840 832 826 817 813 807 803 796 790 784 782 777 775 773 770 765 763 778 778 774 775 773 775 781 784 785 783 774 774 781 782 784
783 813 805 807 812 813 819 818 814 820 821 831 838 836 829 823 819 812 808 801 796 790 783 782 780 777 769 765 752 766 795 772 772 760 764 775 779 781 778 775 770 768 775 778
792 816 808 815 811 818 829 826 823 823 825 830 835 834 822 817 813 809 809 803 799 794 790 786 784 779 776 772 771 774 782 772 759 749 751 761 768 766 770 770 768 762 765 772
799 814 824 825 822 824 837 836 831 831 830 829 838 829 824 822 817 813 810 807 801 795 791 788 786 782 772 765 767 770 759 748 746 745 753 758 757 755 758 761 763 759 756 764
808 819 833 837 827 842 839 824 823 831 831 828 827 826 824 822 817 811 809 808 803 797 791 787 784 783 782 773 767 758 756 752 753 750 748 751 748 748 741 752 750 749 749 755
799 818 837 841 854 845 835 828 829 833 837 830 830 826 822 818 814 810 804 806 804 799 792 785 780 778 774 772 767 764 761 754 752 743 740 740 735 726 723 738 739 740 741 749
803 810 822 841 837 850 838 825 820 822 844 827 826 826 824 821 825 817 806 804 801 798 793 786 778 774 771 768 765 764 759 754 750 742 744 738 722 716 719 720 727 734 731 737
825 830 834 841 844 842 827 824 820 841 843 827 824 824 823 824 820 811 806 801 799 796 791 786 780 775 769 764 759 755 753 749 743 739 736 721 697 708 722 720 724 722 723 724
822 834 839 845 845 840 821 824 829 834 828 826 823 821 819 815 811 808 804 799 795 792 787 784 780 775 770 764 759 757 751 744 741 736 730 719 716 715 723 734 695 713 719 714
822 822 829 832 834 825 823 825 825 826 828 825 824 820 815 810 807 805 801 796 791 787 783 781 775 771 768 764 760 757 749 742 739 738 733 729 728 721 730 708 710 697 696 713
812 814 824 825 828 823 822 822 823 823 823 822 820 818 814 809 805 803 800 795 790 783 778 776 772 768 765 759 755 751 746 742 738 734 729 729 730 729 727 721 726 715 710 709
814 811 822 826 822 822 822 821 821 821 821 820 817 815 810 805 800 798 793 790 786 780 775 771 767 762 760 755 748 747 739 735 730 727 727 725 723 722 722 719 715 707 705 715
809 814 821 823 816 817 818 819 819 820 819 817 814 808 805 800 797 794 790 786 782 777 774 769 763 756 752 750 740 735 735 732 728 725 722 722 722 722 718 718 716 714 717 717